St. Stephen, New Brunswick

10:12 AM ADT on June 27, 2017 (GMT -0300)
St. Stephen

Weather History for CWSS - October, 2012

Change the Weather History Date:

Saturday, October 13, 2012

  Actual Average Record
Temperature  
Mean Temperature 36 °F -  
Max Temperature 47 °F - - ()
Min Temperature 25 °F - - ()
Degree Days  
Heating Degree Days 29    
Moisture  
Dew Point 26 °F    
Average Humidity 69    
Maximum Humidity 98    
Minimum Humidity 25    
Precipitation  
Precipitation 0.00 in - - ()
Sea Level Pressure  
Sea Level Pressure 30.26 in    
Wind  
Wind Speed 4 mph ()    
Max Wind Speed 12 mph    
Max Gust Speed 21 mph    
T = Trace of Precipitation, MM = Missing Value Source: Averaged Metar Reports

Daily Weather History Graph

Daily Weather History Graph

Search for Another Location

Airport or City:

Trip Planner

Search our weather history database for the weather conditions in past years. The results will help you decide how hot, cold, wet, or windy it might be!

Date:

Astronomy

Oct. 13, 2012 Rise Set
Actual Time 7:42 AM ADT 6:46 PM ADT
Civil Twilight 7:13 AM ADT 7:16 PM ADT
Nautical Twilight 6:39 AM ADT 7:50 PM ADT
Astronomical Twilight 6:04 AM ADT 8:24 PM ADT
Moon 5:24 AM ADT (10/13) 5:31 PM ADT (10/13)
Length of Visible Light 12h 02m
Length of Day
11h 03m
Waning Crescent, 5% of the Moon is Illuminated
Oct 13
Waning Crescent
Oct 15
New
Oct 22
First Quarter
Oct 29
Full
Nov 6
Last Quarter

Hourly Weather History & Observations

Time (ADT) Temp. Windchill Dew Point Humidity Pressure Visibility Wind Dir Wind Speed Gust Speed Precip Events Conditions
12:00 AM 33 °F - 28 °F 75% 30.17 in - WNW 4.6 mph - -  
12:00 AM 32.9 °F 28.5 °F 28.0 °F 82% 30.17 in - WNW 4.6 mph - N/A   Unknown
1:00 AM 31.8 °F 28.5 °F 28.4 °F 87% 30.18 in - West 3.5 mph - N/A   Unknown
2:00 AM 31.8 °F 27.3 °F 28.0 °F 86% 30.20 in - WNW 4.6 mph - N/A   Unknown
3:00 AM 32 °F - 28 °F 79% 30.21 in - West 4.6 mph - -  
3:00 AM 31.6 °F 27.0 °F 28.0 °F 87% 30.21 in - West 4.6 mph - N/A   Unknown
4:00 AM 29.7 °F - 27.5 °F 92% 30.22 in - WNW 2.3 mph - N/A   Unknown
6:00 AM 27 °F - 26 °F 92% 30.25 in - Calm Calm - -  
6:00 AM 26.6 °F - 25.5 °F 96% 30.25 in - Calm Calm - N/A   Unknown
7:00 AM 25.7 °F - 25.0 °F 97% 30.27 in - Calm Calm - N/A   Unknown
8:00 AM 25.0 °F - 24.4 °F 98% 30.28 in - NNE 1.2 mph - N/A   Unknown
9:00 AM 31 °F - 30 °F 93% 30.30 in - Calm Calm - -  
9:00 AM 31.5 °F - 29.8 °F 94% 30.30 in - Calm Calm - N/A   Unknown
10:00 AM 37.6 °F 33.1 °F 29.1 °F 72% 30.31 in - West 5.8 mph - N/A   Unknown
11:00 AM 40.3 °F 35.5 °F 26.1 °F 57% 30.30 in - West 6.9 mph - N/A   Unknown
12:00 PM 43 °F - 24 °F 34% 30.30 in - WNW 6.9 mph - -  
12:00 PM 42.8 °F 38.6 °F 24.3 °F 48% 30.30 in - WNW 6.9 mph - N/A   Unknown
1:00 PM 43.5 °F 38.3 °F 23.9 °F 46% 30.28 in - WNW 9.2 mph - N/A   Unknown
2:00 PM 45.0 °F 40.6 °F 22.6 °F 41% 30.25 in - West 8.1 mph - N/A   Unknown
3:00 PM 46 °F - 22 °F 25% 30.25 in - West 11.5 mph - -  
3:00 PM 46.4 °F 41.1 °F 21.6 °F 37% 30.25 in - West 11.5 mph 20.7 mph N/A   Unknown
4:00 PM 47.1 °F - 22.3 °F 38% 30.25 in - WNW 9.2 mph 18.4 mph N/A   Unknown
5:00 PM 47.3 °F - 21.6 °F 36% 30.26 in - West 9.2 mph 17.3 mph N/A   Unknown
6:00 PM 45.7 °F 41.5 °F 22.1 °F 39% 30.27 in - West 8.1 mph - N/A   Unknown
7:00 PM 41.0 °F 39.0 °F 24.6 °F 52% 30.28 in - WNW 3.5 mph - N/A   Unknown
10:00 PM 29.5 °F - 26.6 °F 89% 30.34 in - NW 1.2 mph - N/A   Unknown
11:00 PM 28.2 °F - 26.2 °F 92% 30.32 in - Calm Calm - N/A   Unknown